Hourly Data Report for July 13, 2006

TORONTO CITY
ONTARIO

43°40'00.000" N
79°24'00.000" W
112.50 m
6158355
71508
XTO

Download Data

Hourly Data (July 2006)
Hourly Data Report for July 13, 2006
TIME
LST
Temp Definition
°C
Dew Point Definition
°C
Rel Hum Definition
%
Precip. Amount Definition
mm

Wind Dir Definition
10's deg

Wind Spd Definition
km/h
Visibility Definition
km
Stn Press Definition
kPa
Hmdx Definition


Wind Chill Definition


Weather Definition


00:00 20.4 19.0 92   LegendMM LegendMM   100.04 27   LegendNANA
01:00 19.3 18.6 96   LegendMM LegendMM   100.04     LegendNANA
02:00 19.5 19.0 97   LegendMM LegendMM   100.05     LegendNANA
03:00 20.0 19.0 94   LegendMM LegendMM   100.09 27   LegendNANA
04:00 19.5 18.9 96   LegendMM LegendMM   100.12     LegendNANA
05:00 19.2 18.7 97   LegendMM LegendMM   100.14     LegendNANA
06:00 20.4 19.3 93   LegendMM LegendMM   100.18 27   LegendNANA
07:00 21.8 19.7 88   LegendMM LegendMM   100.24 29   LegendNANA
08:00 23.5 20.1 81   LegendMM LegendMM   100.29 31   LegendNANA
09:00 24.8 20.3 76   LegendMM LegendMM   100.26 33   LegendNANA
10:00 26.4 20.5 70   LegendMM LegendMM   100.24 34   LegendNANA
11:00 26.3 20.6 71   LegendMM LegendMM   100.21 34   LegendNANA
12:00 26.0 20.4 71   LegendMM LegendMM   100.20 34   LegendNANA
13:00 25.9 20.0 70   LegendMM LegendMM   100.20 33   LegendNANA
14:00 26.7 20.2 68   LegendMM LegendMM   100.17 34   LegendNANA
15:00 27.5 20.4 65   LegendMM LegendMM   100.15 35   LegendNANA
16:00 27.7 20.7 66   LegendMM LegendMM   100.11 36   LegendNANA
17:00 26.3 19.7 67   LegendMM LegendMM   100.10 34   LegendNANA
18:00 25.8 19.3 67   LegendMM LegendMM   100.08 33   LegendNANA
19:00 25.2 18.4 66   LegendMM LegendMM   100.06 32   LegendNANA
20:00 24.5 17.2 64   LegendMM LegendMM   100.06 30   LegendNANA
21:00 24.0 16.9 65   LegendMM LegendMM   100.10 29   LegendNANA
22:00 24.0 19.0 74   LegendMM LegendMM   100.08 31   LegendNANA
23:00 23.2 19.6 80   LegendMM LegendMM   100.07 30   LegendNANA

Notes on Data Quality.

Legend

  • E = Estimated
  • M = Missing
  • NA = Not Available*
  • [empty] = Indicates an unobserved value
Date modified: